Torna al catalogo

STARLINK-38040

AttivoComunicazioniSSO
NORAD 69717·PAYLOAD·🇺🇸 United States

Lanciato Jun 28, 2026 da Vandenberg Space Force Base

Loading…

Prossimi Passaggi (prossime 24 ore)

TLE

AggiornatoSource: CelesTrak SupGP

Epoca: Sep 15, 2026, 04:03 UTC

1 69717C 26147P   26258.16923611 -.00037442  00000+0 -11623-2 0  2586
2 69717  97.2832 294.6148 0001160  87.4969  47.9607 15.33458550    11

Traccia STARLINK-38040 in tempo reale con AllMySat

Download on the App Store